Time,TemperatureF,DewpointF,PressureIn,WindDirection,WindDirectionDegrees,WindSpeedMPH,WindSpeedGustMPH,Humidity,HourlyPrecipIn,Conditions,Clouds,dailyrainin,SoftwareType,DateUTC
2013-04-27 00:00:00,50.7,47.3,30.40,North,354,0.0,3.0,88,0.00,,SKC,0.01,VWS V14.01,2013-04-27 04:00:00,
2013-04-27 00:01:00,50.7,47.3,30.40,North,354,0.0,0.0,88,0.00,,SKC,0.00,VWS V14.01,2013-04-27 04:01:00,
2013-04-27 00:06:00,50.7,47.3,30.41,North,354,0.0,1.0,88,0.01,,SKC,0.01,VWS V14.01,2013-04-27 04:06:00,
2013-04-27 00:11:00,50.6,47.5,30.40,North,354,0.0,1.0,89,0.01,,SKC,0.01,VWS V14.01,2013-04-27 04:11:00,
2013-04-27 00:16:00,50.6,47.2,30.40,North,354,0.0,1.0,88,0.01,,SKC,0.01,VWS V14.01,2013-04-27 04:16:00,
2013-04-27 00:21:00,50.5,47.4,30.40,North,354,0.0,1.0,89,0.01,,SKC,0.01,VWS V14.01,2013-04-27 04:21:00,
2013-04-27 00:26:00,50.5,47.7,30.40,North,354,1.0,1.0,90,0.01,,SKC,0.01,VWS V14.01,2013-04-27 04:26:00,
2013-04-27 00:30:00,50.4,47.6,30.41,SSW,195,1.0,2.0,90,0.01,,SKC,0.01,VWS V14.01,2013-04-27 04:30:00,
2013-04-27 00:31:00,50.4,47.6,30.41,SSW,195,1.0,1.0,90,0.01,,SKC,0.01,VWS V14.01,2013-04-27 04:31:00,
2013-04-27 00:36:00,50.3,47.5,30.41,SSW,195,0.0,1.0,90,0.01,,SKC,0.01,VWS V14.01,2013-04-27 04:36:00,
2013-04-27 00:41:00,50.3,47.5,30.41,SSW,195,0.0,1.0,90,0.01,,SKC,0.01,VWS V14.01,2013-04-27 04:41:00,
2013-04-27 00:46:00,50.2,47.7,30.40,SSW,195,0.0,1.0,91,0.01,,SKC,0.01,VWS V14.01,2013-04-27 04:46:00,
2013-04-27 00:51:00,50.2,47.7,30.40,SSW,195,0.0,1.0,91,0.01,,SKC,0.01,VWS V14.01,2013-04-27 04:51:00,
2013-04-27 00:56:00,50.1,47.6,30.40,SSW,195,0.0,1.0,91,0.01,,SKC,0.01,VWS V14.01,2013-04-27 04:56:00,
2013-04-27 01:00:00,50.1,47.6,30.40,SSW,195,1.0,1.0,91,0.01,,SKC,0.01,VWS V14.01,2013-04-27 05:00:00,
2013-04-27 01:01:00,50.1,47.6,30.40,SSW,195,1.0,1.0,91,0.01,,SKC,0.01,VWS V14.01,2013-04-27 05:01:00,
2013-04-27 01:06:00,50.1,47.6,30.40,SSW,195,0.0,1.0,91,0.01,,SKC,0.01,VWS V14.01,2013-04-27 05:06:00,
2013-04-27 01:11:00,50.1,47.9,30.40,SSW,195,0.0,1.0,92,0.01,,SKC,0.01,VWS V14.01,2013-04-27 05:11:00,
2013-04-27 01:16:00,50.0,47.5,30.39,SSW,195,1.0,1.0,91,0.01,,SKC,0.01,VWS V14.01,2013-04-27 05:16:00,
2013-04-27 01:21:00,50.0,47.5,30.39,SSW,195,0.0,1.0,91,0.01,,SKC,0.01,VWS V14.01,2013-04-27 05:21:00,
2013-04-27 01:26:00,50.0,47.5,30.39,SSW,195,0.0,1.0,91,0.01,,SKC,0.01,VWS V14.01,2013-04-27 05:26:00,
2013-04-27 01:30:00,50.0,47.5,30.39,SSW,195,0.0,1.0,91,0.01,,SKC,0.01,VWS V14.01,2013-04-27 05:30:00,
2013-04-27 01:31:00,50.0,47.5,30.39,SSW,195,0.0,0.0,91,0.00,,SKC,0.01,VWS V14.01,2013-04-27 05:31:00,
2013-04-27 01:36:00,49.9,47.4,30.39,SSW,195,0.0,0.0,91,0.00,,SKC,0.01,VWS V14.01,2013-04-27 05:36:00,
2013-04-27 01:41:00,49.8,47.3,30.39,SSW,195,0.0,0.0,91,0.00,,SKC,0.01,VWS V14.01,2013-04-27 05:41:00,
2013-04-27 01:46:00,49.7,47.5,30.39,SSW,195,0.0,0.0,92,0.00,,SKC,0.01,VWS V14.01,2013-04-27 05:46:00,
2013-04-27 01:51:00,49.7,47.5,30.39,SSW,195,0.0,0.0,92,0.00,,SKC,0.01,VWS V14.01,2013-04-27 05:51:00,
2013-04-27 01:56:00,49.6,47.4,30.39,SSW,195,0.0,0.0,92,0.00,,SKC,0.01,VWS V14.01,2013-04-27 05:56:00,
2013-04-27 02:00:00,49.6,47.4,30.40,SSW,195,0.0,0.0,92,0.00,,SKC,0.01,VWS V14.01,2013-04-27 06:00:00,
2013-04-27 02:01:00,49.6,47.4,30.40,SSW,195,0.0,0.0,92,0.00,,SKC,0.01,VWS V14.01,2013-04-27 06:01:00,
2013-04-27 02:06:00,49.7,47.5,30.39,SSW,195,0.0,0.0,92,0.00,,SKC,0.01,VWS V14.01,2013-04-27 06:06:00,
2013-04-27 02:11:00,49.7,47.2,30.39,SSW,195,0.0,0.0,91,0.00,,SKC,0.01,VWS V14.01,2013-04-27 06:11:00,
2013-04-27 02:16:00,49.8,47.6,30.39,SSW,195,0.0,0.0,92,0.00,,SKC,0.01,VWS V14.01,2013-04-27 06:16:00,
2013-04-27 02:21:00,49.9,47.7,30.39,SSW,195,0.0,0.0,92,0.00,,SKC,0.01,VWS V14.01,2013-04-27 06:21:00,
2013-04-27 02:26:00,49.9,47.7,30.39,SSW,195,0.0,1.0,92,0.00,,SKC,0.01,VWS V14.01,2013-04-27 06:26:00,
2013-04-27 02:30:00,49.8,47.6,30.39,SSW,195,0.0,1.0,92,0.00,,SKC,0.01,VWS V14.01,2013-04-27 06:30:00,
2013-04-27 02:31:00,49.8,47.6,30.39,SSW,195,0.0,0.0,92,0.00,,SKC,0.01,VWS V14.01,2013-04-27 06:31:00,
2013-04-27 02:36:00,49.8,47.6,30.39,SSW,195,0.0,0.0,92,0.00,,SKC,0.01,VWS V14.01,2013-04-27 06:36:00,
2013-04-27 02:41:00,49.7,47.5,30.38,SSW,195,0.0,0.0,92,0.00,,SKC,0.01,VWS V14.01,2013-04-27 06:41:00,
2013-04-27 02:46:00,49.7,47.8,30.39,SSW,195,0.0,0.0,93,0.00,,SKC,0.01,VWS V14.01,2013-04-27 06:46:00,
2013-04-27 02:51:00,49.8,47.9,30.38,SSW,195,0.0,0.0,93,0.00,,SKC,0.01,VWS V14.01,2013-04-27 06:51:00,
2013-04-27 02:56:00,49.7,47.5,30.38,SSW,195,0.0,0.0,92,0.00,,SKC,0.01,VWS V14.01,2013-04-27 06:56:00,
2013-04-27 03:00:00,49.8,47.6,30.37,West,271,0.0,1.0,92,0.00,,SKC,0.01,VWS V14.01,2013-04-27 07:00:00,
2013-04-27 03:01:00,49.9,47.7,30.37,West,271,0.0,0.0,92,0.00,,SKC,0.01,VWS V14.01,2013-04-27 07:01:00,
2013-04-27 03:06:00,50.0,47.5,30.37,West,271,0.0,0.0,91,0.00,,SKC,0.01,VWS V14.01,2013-04-27 07:06:00,
2013-04-27 03:11:00,50.0,47.5,30.36,West,271,0.0,0.0,91,0.00,,SKC,0.01,VWS V14.01,2013-04-27 07:11:00,
2013-04-27 03:16:00,50.1,47.6,30.36,West,271,0.0,0.0,91,0.00,,SKC,0.01,VWS V14.01,2013-04-27 07:16:00,
2013-04-27 03:21:00,50.2,47.7,30.36,West,271,0.0,0.0,91,0.00,,SKC,0.01,VWS V14.01,2013-04-27 07:21:00,
2013-04-27 03:26:00,50.2,47.7,30.35,West,271,0.0,1.0,91,0.00,,SKC,0.01,VWS V14.01,2013-04-27 07:26:00,
2013-04-27 03:30:00,50.2,47.7,30.35,West,271,0.0,1.0,91,0.00,,SKC,0.01,VWS V14.01,2013-04-27 07:30:00,
2013-04-27 03:31:00,50.2,47.7,30.35,West,271,0.0,0.0,91,0.00,,SKC,0.01,VWS V14.01,2013-04-27 07:31:00,
2013-04-27 03:36:00,50.2,47.7,30.34,West,271,0.0,1.0,91,0.00,,SKC,0.01,VWS V14.01,2013-04-27 07:36:00,
2013-04-27 03:41:00,50.2,48.0,30.34,West,271,1.0,1.0,92,0.00,,SKC,0.01,VWS V14.01,2013-04-27 07:41:00,
2013-04-27 03:46:00,50.1,47.9,30.35,West,271,1.0,1.0,92,0.00,,SKC,0.01,VWS V14.01,2013-04-27 07:46:00,
2013-04-27 03:51:00,50.1,47.9,30.35,NNW,345,1.0,2.0,92,0.00,,SKC,0.01,VWS V14.01,2013-04-27 07:51:00,
2013-04-27 03:56:00,50.0,47.8,30.35,NNW,345,1.0,2.0,92,0.00,,SKC,0.01,VWS V14.01,2013-04-27 07:56:00,
2013-04-27 04:00:00,50.1,47.9,30.35,North,354,2.0,2.0,92,0.00,,SKC,0.01,VWS V14.01,2013-04-27 08:00:00,
2013-04-27 04:01:00,50.1,47.9,30.35,North,354,2.0,2.0,92,0.00,,SKC,0.01,VWS V14.01,2013-04-27 08:01:00,
2013-04-27 04:06:00,50.0,47.8,30.35,North,358,1.0,2.0,92,0.00,,SKC,0.01,VWS V14.01,2013-04-27 08:06:00,
2013-04-27 04:11:00,50.0,47.8,30.35,North,359,0.0,2.0,92,0.00,,SKC,0.01,VWS V14.01,2013-04-27 08:11:00,
2013-04-27 04:16:00,49.9,47.7,30.36,North,359,0.0,2.0,92,0.00,,SKC,0.01,VWS V14.01,2013-04-27 08:16:00,
2013-04-27 04:21:00,49.9,47.7,30.35,North,359,0.0,2.0,92,0.00,,SKC,0.01,VWS V14.01,2013-04-27 08:21:00,
2013-04-27 04:26:00,50.0,47.8,30.35,North,359,0.0,2.0,92,0.00,,SKC,0.01,VWS V14.01,2013-04-27 08:26:00,
2013-04-27 04:30:00,49.9,47.7,30.35,North,359,0.0,2.0,92,0.00,,SKC,0.01,VWS V14.01,2013-04-27 08:30:00,
2013-04-27 04:31:00,49.9,47.7,30.35,North,359,0.0,0.0,92,0.00,,SKC,0.01,VWS V14.01,2013-04-27 08:31:00,
2013-04-27 04:36:00,49.9,47.7,30.35,North,359,0.0,0.0,92,0.00,,SKC,0.01,VWS V14.01,2013-04-27 08:36:00,
2013-04-27 04:41:00,49.9,47.7,30.36,North,359,0.0,0.0,92,0.00,,SKC,0.01,VWS V14.01,2013-04-27 08:41:00,
2013-04-27 04:46:00,49.9,47.7,30.36,North,359,0.0,0.0,92,0.00,,SKC,0.01,VWS V14.01,2013-04-27 08:46:00,
2013-04-27 04:51:00,49.8,47.9,30.36,North,359,0.0,1.0,93,0.00,,SKC,0.01,VWS V14.01,2013-04-27 08:51:00,
2013-04-27 04:56:00,49.9,48.0,30.36,North,358,0.0,1.0,93,0.00,,SKC,0.01,VWS V14.01,2013-04-27 08:56:00,
2013-04-27 05:00:00,49.8,47.9,30.36,North,358,0.0,1.0,93,0.00,,SKC,0.01,VWS V14.01,2013-04-27 09:00:00,
2013-04-27 05:01:00,49.8,47.9,30.36,North,358,0.0,0.0,93,0.00,,SKC,0.01,VWS V14.01,2013-04-27 09:01:00,
2013-04-27 05:06:00,49.8,47.9,30.36,North,359,0.0,0.0,93,0.00,,SKC,0.01,VWS V14.01,2013-04-27 09:06:00,
2013-04-27 05:11:00,49.7,47.8,30.36,North,359,0.0,0.0,93,0.00,,SKC,0.01,VWS V14.01,2013-04-27 09:11:00,
2013-04-27 05:16:00,49.7,47.8,30.35,North,358,0.0,0.0,93,0.00,,SKC,0.01,VWS V14.01,2013-04-27 09:16:00,
2013-04-27 05:21:00,49.6,48.0,30.36,North,358,0.0,0.0,94,0.00,,SKC,0.01,VWS V14.01,2013-04-27 09:21:00,
2013-04-27 05:26:00,49.6,48.0,30.36,North,358,0.0,0.0,94,0.00,,SKC,0.01,VWS V14.01,2013-04-27 09:26:00,
2013-04-27 05:30:00,49.6,48.0,30.35,North,359,0.0,0.0,94,0.00,,SKC,0.01,VWS V14.01,2013-04-27 09:30:00,
2013-04-27 05:31:00,49.6,48.0,30.35,North,358,0.0,0.0,94,0.00,,SKC,0.01,VWS V14.01,2013-04-27 09:31:00,
2013-04-27 05:36:00,49.6,48.0,30.35,North,358,0.0,0.0,94,0.01,,SKC,0.02,VWS V14.01,2013-04-27 09:36:00,
2013-04-27 05:41:00,49.6,48.0,30.35,North,359,1.0,1.0,94,0.01,,SKC,0.02,VWS V14.01,2013-04-27 09:41:00,
2013-04-27 05:46:00,49.5,48.1,30.35,North,359,0.0,1.0,95,0.01,,SKC,0.02,VWS V14.01,2013-04-27 09:46:00,
2013-04-27 05:51:00,49.5,48.1,30.35,North,358,1.0,1.0,95,0.01,,SKC,0.02,VWS V14.01,2013-04-27 09:51:00,
2013-04-27 05:56:00,49.5,48.1,30.35,North,359,0.0,1.0,95,0.01,,SKC,0.02,VWS V14.01,2013-04-27 09:56:00,
2013-04-27 06:00:00,49.4,48.0,30.35,North,358,0.0,1.0,95,0.01,,SKC,0.02,VWS V14.01,2013-04-27 10:00:00,
2013-04-27 06:01:00,49.4,48.0,30.35,North,358,0.0,0.0,95,0.01,,SKC,0.02,VWS V14.01,2013-04-27 10:01:00,
2013-04-27 06:06:00,49.5,48.1,30.35,North,358,1.0,1.0,95,0.01,,SKC,0.02,VWS V14.01,2013-04-27 10:06:00,
2013-04-27 06:11:00,49.5,48.1,30.35,North,359,0.0,1.0,95,0.01,,SKC,0.02,VWS V14.01,2013-04-27 10:11:00,
2013-04-27 06:16:00,49.5,48.1,30.35,North,358,0.0,1.0,95,0.01,,SKC,0.02,VWS V14.01,2013-04-27 10:16:00,
2013-04-27 06:21:00,49.5,48.1,30.36,North,358,1.0,2.0,95,0.01,,SKC,0.02,VWS V14.01,2013-04-27 10:21:00,
2013-04-27 06:26:00,49.5,48.4,30.36,NNW,347,1.0,2.0,96,0.01,,SKC,0.02,VWS V14.01,2013-04-27 10:26:00,
2013-04-27 06:30:00,49.5,48.4,30.36,NNW,347,0.0,2.0,96,0.01,,SKC,0.02,VWS V14.01,2013-04-27 10:30:00,
2013-04-27 06:31:00,49.4,48.3,30.36,NNW,347,0.0,0.0,96,0.01,,SKC,0.02,VWS V14.01,2013-04-27 10:31:00,
2013-04-27 06:36:00,49.4,48.3,30.36,NNW,347,0.0,0.0,96,0.01,,SKC,0.02,VWS V14.01,2013-04-27 10:36:00,
2013-04-27 06:41:00,49.4,48.3,30.36,NNW,347,0.0,1.0,96,0.01,,SKC,0.02,VWS V14.01,2013-04-27 10:41:00,
2013-04-27 06:46:00,49.4,48.3,30.36,NNW,347,0.0,1.0,96,0.01,,SKC,0.02,VWS V14.01,2013-04-27 10:46:00,
2013-04-27 06:51:00,49.4,48.3,30.36,NNW,347,0.0,1.0,96,0.01,,SKC,0.02,VWS V14.01,2013-04-27 10:51:00,
2013-04-27 06:56:00,49.4,48.3,30.36,NNW,347,0.0,1.0,96,0.02,,SKC,0.03,VWS V14.01,2013-04-27 10:56:00,
2013-04-27 07:00:00,49.4,48.3,30.36,NNW,347,0.0,1.0,96,0.02,,SKC,0.03,VWS V14.01,2013-04-27 11:00:00,
2013-04-27 07:01:00,49.4,48.3,30.36,NNW,347,0.0,0.0,96,0.01,,SKC,0.03,VWS V14.01,2013-04-27 11:01:00,
2013-04-27 07:06:00,49.5,48.4,30.35,NNW,347,0.0,1.0,96,0.01,,SKC,0.03,VWS V14.01,2013-04-27 11:06:00,
2013-04-27 07:11:00,49.5,48.4,30.35,NNW,347,0.0,1.0,96,0.01,,SKC,0.03,VWS V14.01,2013-04-27 11:11:00,
2013-04-27 07:16:00,49.5,48.4,30.35,NNW,347,1.0,1.0,96,0.01,,SKC,0.03,VWS V14.01,2013-04-27 11:16:00,
2013-04-27 07:21:00,49.5,48.4,30.35,NNW,347,0.0,1.0,96,0.01,,SKC,0.03,VWS V14.01,2013-04-27 11:21:00,
2013-04-27 07:26:00,49.6,48.5,30.35,NNW,338,1.0,2.0,96,0.01,,SKC,0.03,VWS V14.01,2013-04-27 11:26:00,
2013-04-27 07:30:00,49.6,48.5,30.35,NNW,339,0.0,0.0,96,0.01,,SKC,0.03,VWS V14.01,2013-04-27 11:30:00,
2013-04-27 07:35:00,49.5,48.4,30.36,NNW,339,1.0,1.0,96,0.01,,SKC,0.03,VWS V14.01,2013-04-27 11:35:00,
2013-04-27 07:40:00,49.6,48.5,30.36,NNW,339,0.0,1.0,96,0.01,,SKC,0.03,VWS V14.01,2013-04-27 11:40:00,
2013-04-27 07:45:00,49.6,48.5,30.36,NNW,339,0.0,1.0,96,0.01,,SKC,0.03,VWS V14.01,2013-04-27 11:45:00,
2013-04-27 07:50:00,49.6,48.8,30.36,NNW,339,0.0,1.0,97,0.01,,SKC,0.03,VWS V14.01,2013-04-27 11:50:00,
2013-04-27 07:55:00,49.6,48.8,30.36,NNW,339,0.0,1.0,97,0.01,,SKC,0.03,VWS V14.01,2013-04-27 11:55:00,
2013-04-27 08:00:00,49.7,48.9,30.36,NNW,339,0.0,0.0,97,0.00,,SKC,0.03,VWS V14.01,2013-04-27 12:00:00,
2013-04-27 08:05:00,49.7,48.9,30.35,NNW,339,0.0,0.0,97,0.00,,SKC,0.03,VWS V14.01,2013-04-27 12:05:00,
2013-04-27 08:10:00,49.8,49.0,30.35,NNE,15,1.0,1.0,97,0.00,,SKC,0.03,VWS V14.01,2013-04-27 12:10:00,
2013-04-27 08:15:00,49.8,49.0,30.35,NNE,29,1.0,2.0,97,0.00,,SKC,0.03,VWS V14.01,2013-04-27 12:15:00,
2013-04-27 08:20:00,49.8,49.0,30.35,NE,38,1.0,2.0,97,0.00,,SKC,0.03,VWS V14.01,2013-04-27 12:20:00,
2013-04-27 08:25:00,49.9,49.1,30.35,NE,39,1.0,2.0,97,0.00,,SKC,0.03,VWS V14.01,2013-04-27 12:25:00,
2013-04-27 08:30:00,49.9,49.1,30.35,NE,38,1.0,1.0,97,0.00,,SKC,0.03,VWS V14.01,2013-04-27 12:30:00,
2013-04-27 08:35:00,49.9,49.1,30.35,North,360,0.0,1.0,97,0.00,,SKC,0.03,VWS V14.01,2013-04-27 12:35:00,
2013-04-27 08:40:00,49.9,49.1,30.35,North,360,0.0,1.0,97,0.00,,SKC,0.03,VWS V14.01,2013-04-27 12:40:00,
2013-04-27 08:45:00,50.0,49.2,30.35,North,360,0.0,1.0,97,0.00,,SKC,0.03,VWS V14.01,2013-04-27 12:45:00,
2013-04-27 08:50:00,50.2,49.4,30.35,West,260,1.0,1.0,97,0.00,,SKC,0.03,VWS V14.01,2013-04-27 12:50:00,
2013-04-27 08:55:00,50.2,49.4,30.36,WNW,288,2.0,2.0,97,0.00,,SKC,0.03,VWS V14.01,2013-04-27 12:55:00,
2013-04-27 09:00:00,50.3,49.5,30.36,WNW,283,1.0,1.0,97,0.00,,SKC,0.03,VWS V14.01,2013-04-27 13:00:00,
2013-04-27 09:05:00,50.3,49.2,30.36,SW,219,1.0,3.0,96,0.00,,SKC,0.03,VWS V14.01,2013-04-27 13:05:00,
2013-04-27 09:10:00,50.3,49.2,30.36,West,265,2.0,3.0,96,0.00,,SKC,0.03,VWS V14.01,2013-04-27 13:10:00,
2013-04-27 09:15:00,50.3,49.2,30.36,WNW,284,1.0,3.0,96,0.00,,SKC,0.03,VWS V14.01,2013-04-27 13:15:00,
2013-04-27 09:20:00,50.3,49.2,30.36,WNW,287,0.0,3.0,96,0.00,,SKC,0.03,VWS V14.01,2013-04-27 13:20:00,
2013-04-27 09:25:00,50.4,49.3,30.36,WNW,287,0.0,3.0,96,0.00,,SKC,0.03,VWS V14.01,2013-04-27 13:25:00,
2013-04-27 09:30:00,50.5,49.4,30.36,WNW,287,0.0,0.0,96,0.00,,SKC,0.03,VWS V14.01,2013-04-27 13:30:00,
2013-04-27 09:35:00,50.6,49.5,30.36,WNW,287,0.0,1.0,96,0.00,,SKC,0.03,VWS V14.01,2013-04-27 13:35:00,
2013-04-27 09:40:00,50.6,49.5,30.35,WNW,287,1.0,1.0,96,0.00,,SKC,0.03,VWS V14.01,2013-04-27 13:40:00,
2013-04-27 09:48:00,50.5,49.1,30.35,WNW,287,1.0,1.0,95,0.00,,SKC,0.03,VWS V14.01,2013-04-27 13:48:00,
2013-04-27 09:53:00,50.7,49.6,30.35,NNE,30,0.0,1.0,96,0.00,,SKC,0.03,VWS V14.01,2013-04-27 13:53:00,
2013-04-27 09:58:00,50.9,49.8,30.35,NNE,30,1.0,1.0,96,0.00,,SKC,0.03,VWS V14.01,2013-04-27 13:58:00,
2013-04-27 10:00:00,51.0,49.6,30.35,NNE,30,1.0,1.0,95,0.00,,SKC,0.03,VWS V14.01,2013-04-27 14:00:00,
2013-04-27 10:03:00,51.0,49.6,30.35,NE,53,1.0,3.0,95,0.00,,SKC,0.03,VWS V14.01,2013-04-27 14:03:00,
2013-04-27 10:08:00,51.1,49.7,30.34,ENE,68,4.0,5.0,95,0.00,,SKC,0.03,VWS V14.01,2013-04-27 14:08:00,
2013-04-27 10:13:00,51.2,49.8,30.34,NNW,339,3.0,6.0,95,0.00,,SKC,0.03,VWS V14.01,2013-04-27 14:13:00,
2013-04-27 10:18:00,51.4,50.0,30.34,WNW,293,0.0,6.0,95,0.00,,SKC,0.03,VWS V14.01,2013-04-27 14:18:00,
2013-04-27 10:23:00,51.7,50.3,30.34,WSW,242,1.0,6.0,95,0.00,,SKC,0.03,VWS V14.01,2013-04-27 14:23:00,
2013-04-27 10:28:00,51.9,50.2,30.34,WSW,242,0.0,6.0,94,0.00,,SKC,0.03,VWS V14.01,2013-04-27 14:28:00,
2013-04-27 10:30:00,52.0,50.3,30.34,SSW,205,1.0,6.0,94,0.00,,SKC,0.03,VWS V14.01,2013-04-27 14:30:00,
2013-04-27 10:33:00,52.1,50.1,30.34,SW,226,2.0,3.0,93,0.00,,SKC,0.03,VWS V14.01,2013-04-27 14:33:00,
2013-04-27 10:38:00,52.4,50.4,30.34,WSW,243,0.0,3.0,93,0.00,,SKC,0.03,VWS V14.01,2013-04-27 14:38:00,
2013-04-27 10:43:00,52.4,50.2,30.34,WSW,242,1.0,3.0,92,0.00,,SKC,0.03,VWS V14.01,2013-04-27 14:43:00,
2013-04-27 10:48:00,52.6,50.3,30.34,NW,308,1.0,3.0,92,0.00,,SKC,0.03,VWS V14.01,2013-04-27 14:48:00,
2013-04-27 10:53:00,52.8,50.5,30.34,WSW,242,2.0,3.0,92,0.00,,SKC,0.03,VWS V14.01,2013-04-27 14:53:00,
2013-04-27 10:58:00,52.9,50.6,30.34,WNW,294,2.0,3.0,92,0.00,,SKC,0.03,VWS V14.01,2013-04-27 14:58:00,
2013-04-27 11:00:00,52.8,49.7,30.34,WNW,302,1.0,4.0,89,0.00,,SKC,0.03,VWS V14.01,2013-04-27 15:00:00,
2013-04-27 11:03:00,52.8,49.3,30.34,WSW,249,1.0,4.0,88,0.00,,SKC,0.03,VWS V14.01,2013-04-27 15:03:00,
2013-04-27 11:08:00,52.7,49.5,30.34,WSW,253,1.0,4.0,89,0.00,,SKC,0.03,VWS V14.01,2013-04-27 15:08:00,
2013-04-27 11:13:00,52.8,49.7,30.34,SSW,211,2.0,4.0,89,0.00,,SKC,0.03,VWS V14.01,2013-04-27 15:13:00,
2013-04-27 11:18:00,52.9,49.8,30.34,SW,222,3.0,4.0,89,0.00,,SKC,0.03,VWS V14.01,2013-04-27 15:18:00,
2013-04-27 11:23:00,52.9,49.8,30.34,SW,231,1.0,4.0,89,0.00,,SKC,0.03,VWS V14.01,2013-04-27 15:23:00,
2013-04-27 11:28:00,53.2,50.3,30.33,SW,226,0.0,4.0,90,0.00,,SKC,0.03,VWS V14.01,2013-04-27 15:28:00,
2013-04-27 11:30:00,53.4,50.2,30.33,SSW,193,1.0,4.0,89,0.00,,SKC,0.03,VWS V14.01,2013-04-27 15:30:00,
2013-04-27 11:33:00,53.6,49.8,30.33,SW,222,2.0,3.0,87,0.00,,SKC,0.03,VWS V14.01,2013-04-27 15:33:00,
2013-04-27 11:38:00,53.7,49.9,30.33,SSW,201,0.0,3.0,87,0.00,,SKC,0.03,VWS V14.01,2013-04-27 15:38:00,
2013-04-27 11:43:00,54.0,50.2,30.33,WSW,243,1.0,3.0,87,0.00,,SKC,0.03,VWS V14.01,2013-04-27 15:43:00,
2013-04-27 11:48:00,54.0,49.9,30.34,SSW,206,3.0,3.0,86,0.00,,SKC,0.03,VWS V14.01,2013-04-27 15:48:00,
2013-04-27 11:53:00,54.1,50.6,30.34,South,186,0.0,3.0,88,0.00,,SKC,0.03,VWS V14.01,2013-04-27 15:53:00,
2013-04-27 11:58:00,54.1,50.3,30.33,SW,236,1.0,3.0,87,0.00,,SKC,0.03,VWS V14.01,2013-04-27 15:58:00,
2013-04-27 12:00:00,54.1,50.0,30.34,SSW,205,1.0,3.0,86,0.00,,SKC,0.03,VWS V14.01,2013-04-27 16:00:00,
2013-04-27 12:03:00,53.9,49.5,30.33,SSW,201,0.0,3.0,85,0.00,,SKC,0.03,VWS V14.01,2013-04-27 16:03:00,
2013-04-27 12:08:00,53.8,49.7,30.34,SW,222,1.0,3.0,86,0.00,,SKC,0.03,VWS V14.01,2013-04-27 16:08:00,
2013-04-27 12:13:00,53.7,50.2,30.34,SSW,210,1.0,3.0,88,0.00,,SKC,0.03,VWS V14.01,2013-04-27 16:13:00,
2013-04-27 12:18:00,53.6,49.8,30.34,SSW,211,0.0,3.0,87,0.00,,SKC,0.03,VWS V14.01,2013-04-27 16:18:00,
2013-04-27 12:23:00,53.7,50.5,30.34,SSW,211,0.0,3.0,89,0.00,,SKC,0.03,VWS V14.01,2013-04-27 16:23:00,
2013-04-27 12:28:00,53.6,50.4,30.34,SW,226,1.0,3.0,89,0.01,,SKC,0.04,VWS V14.01,2013-04-27 16:28:00,
2013-04-27 12:30:00,53.6,50.7,30.35,SW,226,1.0,3.0,90,0.01,,SKC,0.04,VWS V14.01,2013-04-27 16:30:00,
2013-04-27 12:33:00,53.5,50.3,30.35,SW,227,1.0,2.0,89,0.01,,SKC,0.04,VWS V14.01,2013-04-27 16:33:00,
2013-04-27 12:38:00,53.4,50.5,30.35,SW,226,1.0,2.0,90,0.01,,SKC,0.04,VWS V14.01,2013-04-27 16:38:00,
2013-04-27 12:43:00,53.4,50.5,30.34,SW,226,0.0,2.0,90,0.02,,SKC,0.05,VWS V14.01,2013-04-27 16:43:00,
2013-04-27 12:48:00,53.4,50.5,30.34,SW,223,1.0,2.0,90,0.02,,SKC,0.05,VWS V14.01,2013-04-27 16:48:00,
2013-04-27 12:53:00,53.3,50.5,30.34,SSW,210,2.0,4.0,90,0.03,,SKC,0.06,VWS V14.01,2013-04-27 16:53:00,
2013-04-27 12:58:00,53.3,50.5,30.34,SW,226,1.0,4.0,90,0.03,,SKC,0.06,VWS V14.01,2013-04-27 16:58:00,
2013-04-27 13:00:00,53.3,50.5,30.34,SW,225,0.0,4.0,90,0.03,,SKC,0.06,VWS V14.01,2013-04-27 17:00:00,
2013-04-27 13:03:00,53.3,50.7,30.35,SW,225,0.0,1.0,91,0.03,,SKC,0.06,VWS V14.01,2013-04-27 17:03:00,
2013-04-27 13:08:00,53.3,50.5,30.35,SSW,197,0.0,2.0,90,0.03,,SKC,0.06,VWS V14.01,2013-04-27 17:08:00,
2013-04-27 13:13:00,53.2,50.0,30.35,SSW,197,0.0,2.0,89,0.04,,SKC,0.07,VWS V14.01,2013-04-27 17:13:00,
2013-04-27 13:18:00,53.1,50.2,30.35,SSW,197,1.0,2.0,90,0.04,,SKC,0.07,VWS V14.01,2013-04-27 17:18:00,
2013-04-27 13:23:00,53.0,50.5,30.35,South,174,0.0,2.0,91,0.05,,SKC,0.08,VWS V14.01,2013-04-27 17:23:00,
2013-04-27 13:28:00,53.0,50.7,30.34,South,174,0.0,2.0,92,0.06,,SKC,0.09,VWS V14.01,2013-04-27 17:28:00,
2013-04-27 13:30:00,53.1,50.8,30.34,South,174,0.0,2.0,92,0.06,,SKC,0.09,VWS V14.01,2013-04-27 17:30:00,
2013-04-27 13:33:00,53.1,50.8,30.34,South,174,0.0,0.0,92,0.05,,SKC,0.09,VWS V14.01,2013-04-27 17:33:00,
2013-04-27 13:38:00,53.2,50.9,30.34,South,174,0.0,0.0,92,0.05,,SKC,0.09,VWS V14.01,2013-04-27 17:38:00,
2013-04-27 13:43:00,53.0,50.5,30.35,WSW,256,0.0,1.0,91,0.05,,SKC,0.09,VWS V14.01,2013-04-27 17:43:00,
2013-04-27 13:48:00,53.0,50.2,30.35,SSW,200,1.0,3.0,90,0.06,,SKC,0.10,VWS V14.01,2013-04-27 17:48:00,
2013-04-27 13:53:00,53.0,50.5,30.35,SSW,200,0.0,3.0,91,0.06,,SKC,0.10,VWS V14.01,2013-04-27 17:53:00,
2013-04-27 13:58:00,52.9,50.3,30.35,SSW,200,0.0,3.0,91,0.06,,SKC,0.10,VWS V14.01,2013-04-27 17:58:00,
2013-04-27 14:00:00,53.0,50.5,30.35,SSW,200,0.0,3.0,91,0.07,,SKC,0.11,VWS V14.01,2013-04-27 18:00:00,
2013-04-27 14:03:00,53.0,50.5,30.35,SSW,200,0.0,0.0,91,0.05,,SKC,0.11,VWS V14.01,2013-04-27 18:03:00,
2013-04-27 14:08:00,53.0,50.5,30.35,SSW,200,0.0,0.0,91,0.06,,SKC,0.12,VWS V14.01,2013-04-27 18:08:00,
2013-04-27 14:13:00,52.9,50.3,30.35,South,176,1.0,2.0,91,0.06,,SKC,0.12,VWS V14.01,2013-04-27 18:13:00,
2013-04-27 14:18:00,52.9,50.6,30.35,South,176,1.0,2.0,92,0.07,,SKC,0.13,VWS V14.01,2013-04-27 18:18:00,
2013-04-27 14:23:00,52.6,50.3,30.34,South,170,1.0,3.0,92,0.08,,SKC,0.14,VWS V14.01,2013-04-27 18:23:00,
2013-04-27 14:28:00,52.6,50.3,30.34,SSW,203,1.0,3.0,92,0.09,,SKC,0.15,VWS V14.01,2013-04-27 18:28:00,
2013-04-27 14:30:00,52.5,50.2,30.34,SSW,211,2.0,3.0,92,0.09,,SKC,0.15,VWS V14.01,2013-04-27 18:30:00,
2013-04-27 14:33:00,52.4,50.2,30.34,SW,233,1.0,2.0,92,0.07,,SKC,0.16,VWS V14.01,2013-04-27 18:33:00,
2013-04-27 14:38:00,52.2,50.2,30.34,SW,217,0.0,3.0,93,0.08,,SKC,0.17,VWS V14.01,2013-04-27 18:38:00,
2013-04-27 14:43:00,52.2,50.2,30.35,SW,231,0.0,3.0,93,0.09,,SKC,0.18,VWS V14.01,2013-04-27 18:43:00,
2013-04-27 14:48:00,52.3,50.6,30.35,SW,231,0.0,3.0,94,0.11,,SKC,0.20,VWS V14.01,2013-04-27 18:48:00,
2013-04-27 14:53:00,52.3,50.6,30.35,SW,231,0.0,3.0,94,0.14,,SKC,0.23,VWS V14.01,2013-04-27 18:53:00,
2013-04-27 14:58:00,52.5,50.8,30.34,SW,231,0.0,3.0,94,0.16,,SKC,0.25,VWS V14.01,2013-04-27 18:58:00,
2013-04-27 15:00:00,52.5,50.8,30.34,North,8,0.0,3.0,94,0.17,,SKC,0.26,VWS V14.01,2013-04-27 19:00:00,
2013-04-27 15:03:00,52.5,50.8,30.33,North,9,0.0,1.0,94,0.16,,SKC,0.27,VWS V14.01,2013-04-27 19:03:00,
2013-04-27 15:08:00,52.7,51.3,30.33,North,9,0.0,1.0,95,0.17,,SKC,0.28,VWS V14.01,2013-04-27 19:08:00,
2013-04-27 15:13:00,52.6,50.9,30.33,WSW,256,0.0,1.0,94,0.17,,SKC,0.28,VWS V14.01,2013-04-27 19:13:00,
2013-04-27 15:18:00,52.6,50.9,30.33,SSW,193,1.0,2.0,94,0.18,,SKC,0.29,VWS V14.01,2013-04-27 19:18:00,
2013-04-27 15:23:00,52.8,51.1,30.32,SSW,193,1.0,2.0,94,0.19,,SKC,0.30,VWS V14.01,2013-04-27 19:23:00,
2013-04-27 15:28:00,52.8,51.1,30.32,SW,222,1.0,3.0,94,0.19,,SKC,0.30,VWS V14.01,2013-04-27 19:28:00,
2013-04-27 15:30:00,52.9,50.9,30.32,WSW,253,0.0,3.0,93,0.19,,SKC,0.30,VWS V14.01,2013-04-27 19:30:00,
2013-04-27 15:33:00,52.9,50.9,30.32,WSW,250,1.0,1.0,93,0.15,,SKC,0.30,VWS V14.01,2013-04-27 19:33:00,
2013-04-27 15:38:00,52.9,50.9,30.32,SW,225,0.0,2.0,93,0.15,,SKC,0.30,VWS V14.01,2013-04-27 19:38:00,
2013-04-27 15:43:00,53.1,51.1,30.32,West,277,0.0,2.0,93,0.16,,SKC,0.31,VWS V14.01,2013-04-27 19:43:00,
2013-04-27 15:48:00,53.0,51.0,30.33,WNW,284,1.0,2.0,93,0.16,,SKC,0.31,VWS V14.01,2013-04-27 19:48:00,
2013-04-27 15:53:00,52.9,50.9,30.33,WNW,284,0.0,2.0,93,0.17,,SKC,0.32,VWS V14.01,2013-04-27 19:53:00,
2013-04-27 15:58:00,52.6,50.6,30.33,WNW,284,0.0,2.0,93,0.17,,SKC,0.32,VWS V14.01,2013-04-27 19:58:00,
2013-04-27 16:00:00,52.7,50.7,30.33,WNW,284,0.0,2.0,93,0.18,,SKC,0.33,VWS V14.01,2013-04-27 20:00:00,
2013-04-27 16:03:00,52.7,50.7,30.33,WNW,284,0.0,1.0,93,0.07,,SKC,0.33,VWS V14.01,2013-04-27 20:03:00,
2013-04-27 16:08:00,52.8,50.8,30.33,WNW,284,0.0,1.0,93,0.08,,SKC,0.34,VWS V14.01,2013-04-27 20:08:00,
2013-04-27 16:13:00,52.8,51.1,30.33,WNW,283,0.0,1.0,94,0.09,,SKC,0.35,VWS V14.01,2013-04-27 20:13:00,
2013-04-27 16:18:00,52.7,51.0,30.33,WNW,283,0.0,1.0,94,0.09,,SKC,0.35,VWS V14.01,2013-04-27 20:18:00,
2013-04-27 16:23:00,52.7,51.0,30.32,WNW,283,1.0,1.0,94,0.10,,SKC,0.36,VWS V14.01,2013-04-27 20:23:00,
2013-04-27 16:28:00,52.7,51.0,30.31,SW,232,1.0,1.0,94,0.11,,SKC,0.37,VWS V14.01,2013-04-27 20:28:00,
2013-04-27 16:30:00,52.6,50.9,30.30,SW,232,0.0,1.0,94,0.11,,SKC,0.37,VWS V14.01,2013-04-27 20:30:00,
2013-04-27 16:33:00,52.6,51.2,30.29,SSW,200,0.0,1.0,95,0.08,,SKC,0.38,VWS V14.01,2013-04-27 20:33:00,
2013-04-27 16:38:00,52.7,51.3,30.27,South,186,1.0,2.0,95,0.09,,SKC,0.39,VWS V14.01,2013-04-27 20:38:00,
2013-04-27 16:43:00,52.8,51.4,30.27,SSW,201,1.0,2.0,95,0.09,,SKC,0.39,VWS V14.01,2013-04-27 20:43:00,
2013-04-27 16:48:00,52.8,51.4,30.28,South,179,4.0,4.0,95,0.10,,SKC,0.40,VWS V14.01,2013-04-27 20:48:00,
2013-04-27 16:53:00,52.8,50.8,30.28,SSW,198,2.0,5.0,93,0.10,,SKC,0.40,VWS V14.01,2013-04-27 20:53:00,
2013-04-27 16:58:00,52.9,50.9,30.28,SSW,200,2.0,5.0,93,0.10,,SKC,0.40,VWS V14.01,2013-04-27 20:58:00,
2013-04-27 17:00:00,53.0,51.0,30.27,South,179,2.0,5.0,93,0.10,,SKC,0.40,VWS V14.01,2013-04-27 21:00:00,
2013-04-27 17:03:00,53.0,51.0,30.28,SSW,197,1.0,7.0,93,0.07,,SKC,0.40,VWS V14.01,2013-04-27 21:03:00,
2013-04-27 17:08:00,53.0,50.7,30.27,SW,235,2.0,7.0,92,0.07,,SKC,0.40,VWS V14.01,2013-04-27 21:08:00,
2013-04-27 17:13:00,53.0,51.0,30.27,SSW,211,1.0,7.0,93,0.07,,SKC,0.40,VWS V14.01,2013-04-27 21:13:00,
2013-04-27 17:18:00,53.0,50.7,30.27,SSW,200,2.0,7.0,92,0.07,,SKC,0.40,VWS V14.01,2013-04-27 21:18:00,
2013-04-27 17:23:00,53.0,50.7,30.27,SSE,165,0.0,7.0,92,0.07,,SKC,0.40,VWS V14.01,2013-04-27 21:23:00,
2013-04-27 17:28:00,53.0,50.7,30.28,SW,219,4.0,8.0,92,0.07,,SKC,0.40,VWS V14.01,2013-04-27 21:28:00,
2013-04-27 17:30:00,53.0,50.5,30.28,SSW,207,1.0,8.0,91,0.07,,SKC,0.40,VWS V14.01,2013-04-27 21:30:00,
2013-04-27 17:33:00,53.0,50.5,30.28,SSW,200,2.0,6.0,91,0.03,,SKC,0.40,VWS V14.01,2013-04-27 21:33:00,
2013-04-27 17:38:00,52.9,50.3,30.28,SSW,197,2.0,6.0,91,0.03,,SKC,0.40,VWS V14.01,2013-04-27 21:38:00,
2013-04-27 17:43:00,52.7,49.8,30.28,SSW,197,1.0,6.0,90,0.03,,SKC,0.40,VWS V14.01,2013-04-27 21:43:00,
2013-04-27 17:48:00,52.6,49.8,30.28,SSW,207,2.0,6.0,90,0.03,,SKC,0.40,VWS V14.01,2013-04-27 21:48:00,
2013-04-27 17:53:00,52.4,49.8,30.28,SW,236,1.0,6.0,91,0.03,,SKC,0.40,VWS V14.01,2013-04-27 21:53:00,
2013-04-27 17:58:00,52.3,49.8,30.28,SSW,204,0.0,6.0,91,0.03,,SKC,0.40,VWS V14.01,2013-04-27 21:58:00,
2013-04-27 18:00:00,52.3,50.0,30.28,South,181,2.0,6.0,92,0.04,,SKC,0.41,VWS V14.01,2013-04-27 22:00:00,
2013-04-27 18:03:00,52.3,50.0,30.28,SSW,201,1.0,6.0,92,0.01,,SKC,0.41,VWS V14.01,2013-04-27 22:03:00,
2013-04-27 18:08:00,52.3,50.0,30.28,WSW,257,1.0,6.0,92,0.01,,SKC,0.41,VWS V14.01,2013-04-27 22:08:00,
2013-04-27 18:13:00,52.2,50.0,30.28,SSW,206,2.0,6.0,92,0.02,,SKC,0.42,VWS V14.01,2013-04-27 22:13:00,
2013-04-27 18:18:00,52.1,49.8,30.28,SSW,197,2.0,6.0,92,0.02,,SKC,0.42,VWS V14.01,2013-04-27 22:18:00,
2013-04-27 18:23:00,52.0,50.0,30.28,SSW,207,1.0,6.0,93,0.03,,SKC,0.43,VWS V14.01,2013-04-27 22:23:00,
2013-04-27 18:28:00,51.9,49.9,30.28,SSW,198,2.0,6.0,93,0.03,,SKC,0.43,VWS V14.01,2013-04-27 22:28:00,
2013-04-27 18:30:00,51.8,49.8,30.28,South,176,1.0,6.0,93,0.04,,SKC,0.44,VWS V14.01,2013-04-27 22:30:00,
2013-04-27 18:33:00,51.8,49.8,30.28,SW,217,1.0,3.0,93,0.04,,SKC,0.44,VWS V14.01,2013-04-27 22:33:00,
2013-04-27 18:38:00,51.6,49.7,30.29,South,187,2.0,4.0,93,0.05,,SKC,0.45,VWS V14.01,2013-04-27 22:38:00,
2013-04-27 18:43:00,51.5,49.5,30.28,SW,225,2.0,4.0,93,0.06,,SKC,0.46,VWS V14.01,2013-04-27 22:43:00,
2013-04-27 18:48:00,51.4,49.5,30.29,SW,214,1.0,4.0,93,0.08,,SKC,0.48,VWS V14.01,2013-04-27 22:48:00,
2013-04-27 18:53:00,51.3,49.3,30.29,SSW,194,1.0,4.0,93,0.08,,SKC,0.48,VWS V14.01,2013-04-27 22:53:00,
2013-04-27 18:58:00,51.2,49.2,30.28,South,185,2.0,4.0,93,0.10,,SKC,0.50,VWS V14.01,2013-04-27 22:58:00,
2013-04-27 19:00:00,51.1,49.2,30.28,South,177,1.0,4.0,93,0.10,,SKC,0.50,VWS V14.01,2013-04-27 23:00:00,
2013-04-27 19:03:00,51.1,49.2,30.27,SSW,204,2.0,6.0,93,0.09,,SKC,0.50,VWS V14.01,2013-04-27 23:03:00,
2013-04-27 19:08:00,51.0,49.0,30.27,SSW,211,4.0,6.0,93,0.10,,SKC,0.51,VWS V14.01,2013-04-27 23:08:00,
2013-04-27 19:13:00,51.0,49.0,30.27,SSW,210,1.0,9.0,93,0.11,,SKC,0.52,VWS V14.01,2013-04-27 23:13:00,
2013-04-27 19:18:00,50.9,49.0,30.27,SSW,194,2.0,9.0,93,0.12,,SKC,0.53,VWS V14.01,2013-04-27 23:18:00,
2013-04-27 19:23:00,50.7,49.0,30.27,SSW,197,1.0,9.0,94,0.12,,SKC,0.53,VWS V14.01,2013-04-27 23:23:00,
2013-04-27 19:28:00,50.6,48.9,30.27,SSW,204,1.0,9.0,94,0.13,,SKC,0.54,VWS V14.01,2013-04-27 23:28:00,
2013-04-27 19:30:00,50.5,48.8,30.26,South,172,3.0,9.0,94,0.13,,SKC,0.54,VWS V14.01,2013-04-27 23:30:00,
2013-04-27 19:33:00,50.5,48.6,30.26,South,190,1.0,4.0,93,0.11,,SKC,0.55,VWS V14.01,2013-04-27 23:33:00,
2013-04-27 19:38:00,50.5,48.8,30.26,SSW,211,3.0,5.0,94,0.11,,SKC,0.55,VWS V14.01,2013-04-27 23:38:00,
2013-04-27 19:43:00,50.4,48.7,30.26,South,188,2.0,5.0,94,0.12,,SKC,0.56,VWS V14.01,2013-04-27 23:43:00,
2013-04-27 19:48:00,50.4,48.7,30.26,South,183,3.0,5.0,94,0.13,,SKC,0.57,VWS V14.01,2013-04-27 23:48:00,
2013-04-27 19:53:00,50.4,48.7,30.26,SSW,195,0.0,5.0,94,0.13,,SKC,0.57,VWS V14.01,2013-04-27 23:53:00,
2013-04-27 19:58:00,50.4,48.7,30.27,SSW,192,2.0,6.0,94,0.14,,SKC,0.58,VWS V14.01,2013-04-27 23:58:00,
2013-04-27 20:00:00,50.4,48.7,30.27,SW,221,4.0,6.0,94,0.15,,SKC,0.59,VWS V14.01,2013-04-28 00:00:00,
2013-04-27 20:03:00,50.4,48.7,30.27,SSW,204,0.0,4.0,94,0.10,,SKC,0.60,VWS V14.01,2013-04-28 00:03:00,
2013-04-27 20:08:00,50.4,49.0,30.27,South,184,1.0,4.0,95,0.11,,SKC,0.61,VWS V14.01,2013-04-28 00:08:00,
2013-04-27 20:13:00,50.3,48.9,30.27,SSW,200,2.0,4.0,95,0.11,,SKC,0.61,VWS V14.01,2013-04-28 00:13:00,
2013-04-27 20:18:00,50.3,48.9,30.27,SSW,211,3.0,5.0,95,0.11,,SKC,0.61,VWS V14.01,2013-04-28 00:18:00,
2013-04-27 20:23:00,50.2,48.8,30.26,South,173,3.0,7.0,95,0.11,,SKC,0.61,VWS V14.01,2013-04-28 00:23:00,
2013-04-27 20:28:00,50.2,48.8,30.27,SSW,200,3.0,7.0,95,0.11,,SKC,0.61,VWS V14.01,2013-04-28 00:28:00,
2013-04-27 20:30:00,50.2,48.8,30.27,SW,217,2.0,7.0,95,0.11,,SKC,0.61,VWS V14.01,2013-04-28 00:30:00,
2013-04-27 20:33:00,50.2,48.8,30.26,SSW,210,2.0,3.0,95,0.07,,SKC,0.61,VWS V14.01,2013-04-28 00:33:00,
2013-04-27 20:38:00,50.2,48.8,30.26,SSW,203,1.0,6.0,95,0.07,,SKC,0.61,VWS V14.01,2013-04-28 00:38:00,
2013-04-27 20:43:00,50.2,48.8,30.26,SSW,213,2.0,6.0,95,0.07,,SKC,0.61,VWS V14.01,2013-04-28 00:43:00,
2013-04-27 20:48:00,50.3,48.9,30.26,WSW,257,1.0,6.0,95,0.07,,SKC,0.61,VWS V14.01,2013-04-28 00:48:00,
2013-04-27 20:53:00,50.3,48.9,30.25,SSW,204,2.0,7.0,95,0.08,,SKC,0.62,VWS V14.01,2013-04-28 00:53:00,
2013-04-27 20:58:00,50.5,49.1,30.26,South,172,3.0,7.0,95,0.08,,SKC,0.62,VWS V14.01,2013-04-28 00:58:00,
2013-04-27 21:00:00,50.5,49.1,30.26,South,186,2.0,7.0,95,0.08,,SKC,0.62,VWS V14.01,2013-04-28 01:00:00,
2013-04-27 21:03:00,50.6,49.2,30.26,South,177,2.0,3.0,95,0.03,,SKC,0.62,VWS V14.01,2013-04-28 01:03:00,
2013-04-27 21:08:00,50.6,49.2,30.26,SSW,210,1.0,3.0,95,0.03,,SKC,0.62,VWS V14.01,2013-04-28 01:08:00,
2013-04-27 21:13:00,50.7,49.3,30.26,SE,146,1.0,3.0,95,0.04,,SKC,0.63,VWS V14.01,2013-04-28 01:13:00,
2013-04-27 21:18:00,50.8,49.4,30.26,SSW,200,2.0,6.0,95,0.04,,SKC,0.63,VWS V14.01,2013-04-28 01:18:00,
2013-04-27 21:23:00,50.9,49.2,30.26,SSW,193,2.0,6.0,94,0.04,,SKC,0.63,VWS V14.01,2013-04-28 01:23:00,
2013-04-27 21:28:00,50.9,49.5,30.26,SSW,205,2.0,6.0,95,0.04,,SKC,0.63,VWS V14.01,2013-04-28 01:28:00,
2013-04-27 21:30:00,50.9,49.5,30.27,South,185,4.0,6.0,95,0.04,,SKC,0.63,VWS V14.01,2013-04-28 01:30:00,
2013-04-27 21:33:00,50.9,49.5,30.27,SSW,203,3.0,5.0,95,0.02,,SKC,0.63,VWS V14.01,2013-04-28 01:33:00,
2013-04-27 21:38:00,50.8,49.4,30.26,SSW,208,1.0,5.0,95,0.02,,SKC,0.63,VWS V14.01,2013-04-28 01:38:00,
2013-04-27 21:43:00,50.7,49.3,30.27,SSW,211,2.0,5.0,95,0.03,,SKC,0.64,VWS V14.01,2013-04-28 01:43:00,
2013-04-27 21:48:00,50.6,49.2,30.27,SSW,200,2.0,5.0,95,0.03,,SKC,0.64,VWS V14.01,2013-04-28 01:48:00,
2013-04-27 21:53:00,50.6,49.2,30.27,South,176,1.0,5.0,95,0.04,,SKC,0.65,VWS V14.01,2013-04-28 01:53:00,
2013-04-27 21:58:00,50.6,49.5,30.26,South,183,2.0,5.0,96,0.05,,SKC,0.66,VWS V14.01,2013-04-28 01:58:00,
2013-04-27 22:00:00,50.5,49.4,30.26,South,183,1.0,5.0,96,0.05,,SKC,0.66,VWS V14.01,2013-04-28 02:00:00,
2013-04-27 22:03:00,50.6,49.5,30.26,South,181,0.0,1.0,96,0.04,,SKC,0.66,VWS V14.01,2013-04-28 02:03:00,
2013-04-27 22:08:00,50.5,49.4,30.27,SW,221,2.0,2.0,96,0.05,,SKC,0.67,VWS V14.01,2013-04-28 02:08:00,
2013-04-27 22:13:00,50.5,49.4,30.27,SW,229,1.0,2.0,96,0.05,,SKC,0.67,VWS V14.01,2013-04-28 02:13:00,
2013-04-27 22:18:00,50.5,49.4,30.27,SW,224,0.0,2.0,96,0.05,,SKC,0.67,VWS V14.01,2013-04-28 02:18:00,
2013-04-27 22:23:00,50.5,49.4,30.26,SSW,205,1.0,2.0,96,0.05,,SKC,0.67,VWS V14.01,2013-04-28 02:23:00,
2013-04-27 22:28:00,50.4,49.3,30.27,SW,214,1.0,2.0,96,0.05,,SKC,0.67,VWS V14.01,2013-04-28 02:28:00,
2013-04-27 22:30:00,50.5,49.4,30.27,SSW,208,1.0,2.0,96,0.05,,SKC,0.67,VWS V14.01,2013-04-28 02:30:00,
2013-04-27 22:33:00,50.5,49.4,30.27,SSW,208,1.0,2.0,96,0.04,,SKC,0.67,VWS V14.01,2013-04-28 02:33:00,
2013-04-27 22:38:00,50.4,49.3,30.26,South,174,1.0,2.0,96,0.04,,SKC,0.67,VWS V14.01,2013-04-28 02:38:00,
2013-04-27 22:43:00,50.4,49.3,30.26,SSE,167,1.0,2.0,96,0.05,,SKC,0.68,VWS V14.01,2013-04-28 02:43:00,
2013-04-27 22:48:00,50.4,49.3,30.26,SSE,167,1.0,2.0,96,0.05,,SKC,0.68,VWS V14.01,2013-04-28 02:48:00,
2013-04-27 22:53:00,50.4,49.3,30.26,SSE,167,1.0,2.0,96,0.05,,SKC,0.68,VWS V14.01,2013-04-28 02:53:00,
2013-04-27 22:58:00,50.4,49.3,30.26,SSE,168,0.0,2.0,96,0.05,,SKC,0.68,VWS V14.01,2013-04-28 02:58:00,
2013-04-27 23:00:00,50.4,49.3,30.26,SSE,167,1.0,2.0,96,0.06,,SKC,0.69,VWS V14.01,2013-04-28 03:00:00,
2013-04-27 23:03:00,50.4,49.3,30.25,SSE,168,1.0,1.0,96,0.03,,SKC,0.69,VWS V14.01,2013-04-28 03:03:00,
2013-04-27 23:08:00,50.3,49.2,30.26,SSW,204,0.0,2.0,96,0.03,,SKC,0.69,VWS V14.01,2013-04-28 03:08:00,
2013-04-27 23:13:00,50.3,49.2,30.26,South,170,1.0,3.0,96,0.03,,SKC,0.69,VWS V14.01,2013-04-28 03:13:00,
2013-04-27 23:18:00,50.3,49.2,30.25,SSW,194,0.0,3.0,96,0.04,,SKC,0.70,VWS V14.01,2013-04-28 03:18:00,
2013-04-27 23:23:00,50.3,49.2,30.25,SSW,193,0.0,3.0,96,0.04,,SKC,0.70,VWS V14.01,2013-04-28 03:23:00,
2013-04-27 23:28:00,50.2,49.1,30.25,SSW,200,1.0,3.0,96,0.04,,SKC,0.70,VWS V14.01,2013-04-28 03:28:00,
2013-04-27 23:30:00,50.2,49.1,30.25,SSW,201,0.0,3.0,96,0.04,,SKC,0.70,VWS V14.01,2013-04-28 03:30:00,
2013-04-27 23:33:00,50.3,49.2,30.25,SSW,201,0.0,1.0,96,0.03,,SKC,0.70,VWS V14.01,2013-04-28 03:33:00,
2013-04-27 23:38:00,50.2,49.1,30.25,SSW,201,0.0,1.0,96,0.03,,SKC,0.70,VWS V14.01,2013-04-28 03:38:00,
2013-04-27 23:43:00,50.2,49.1,30.25,SSW,211,0.0,1.0,96,0.03,,SKC,0.70,VWS V14.01,2013-04-28 03:43:00,
2013-04-27 23:48:00,50.2,49.1,30.25,SSW,211,0.0,1.0,96,0.04,,SKC,0.71,VWS V14.01,2013-04-28 03:48:00,
2013-04-27 23:53:00,50.2,49.1,30.25,SSW,205,0.0,2.0,96,0.04,,SKC,0.71,VWS V14.01,2013-04-28 03:53:00,
2013-04-27 23:58:00,50.1,49.0,30.25,SSW,205,1.0,2.0,96,0.04,,SKC,0.71,VWS V14.01,2013-04-28 03:58:00,